Hurley, NM

8:15 PM MST on February 20, 2017 (GMT -0700)
Grant County

Weather History for KSVC - December, 2012

Change the Weather History Date:

Friday, December 28, 2012

  Actual Average (KDMN) Record (KDMN)
Temperature  
Mean Temperature 28 °F -  
Max Temperature 41 °F 54 °F 70 °F (1951)
Min Temperature 15 °F 28 °F 7 °F (1988)
Degree Days  
Heating Degree Days 37    
Moisture  
Dew Point 18 °F    
Average Humidity 65    
Maximum Humidity 93    
Minimum Humidity 33    
Precipitation  
Precipitation 0.00 in - - ()
Sea Level Pressure  
Sea Level Pressure 30.07 in    
Wind  
Wind Speed 10 mph (NW)    
Max Wind Speed 14 mph    
Max Gust Speed 22 mph    
Visibility 10 miles    
Events      
Averages and records for this station are not official NWS values.
T = Trace of Precipitation, MM = Missing Value Source: NWS Daily Summary

Daily Weather History Graph

Daily Weather History Graph

Search for Another Location

Airport or City:

Trip Planner

Search our weather history database for the weather conditions in past years. The results will help you decide how hot, cold, wet, or windy it might be!

Date:

Astronomy

Dec. 28, 2012 Rise Set
Actual Time 7:13 AM MST 5:15 PM MST
Civil Twilight 6:46 AM MST 5:42 PM MST
Nautical Twilight 6:15 AM MST 6:13 PM MST
Astronomical Twilight 5:45 AM MST 6:43 PM MST
Moon 5:51 PM MST (12/28) 7:13 AM MST (12/28)
Length of Visible Light 10h 55m
Length of Day
10h 01m
Full, 100% of the Moon is Illuminated
Dec 28
Full
Jan 4
Last Quarter
Jan 11
New
Jan 18
First Quarter
Jan 26
Full

Hourly Weather History & Observations

Time (MST) Temp. Windchill Dew Point Humidity Pressure Visibility Wind Dir Wind Speed Gust Speed Precip Events Conditions
12:15 AM 28.4 °F 18.0 °F 23.0 °F 80% 29.97 in 10.0 mi NW 12.7 mph - N/A   Clear
12:35 AM 26.6 °F 18.2 °F 23.0 °F 86% 29.97 in 10.0 mi North 8.1 mph - N/A   Clear
12:55 AM 26.6 °F 17.5 °F 23.0 °F 86% 29.97 in 10.0 mi NNW 9.2 mph - N/A   Clear
1:15 AM 26.6 °F 16.8 °F 23.0 °F 86% 29.98 in 10.0 mi North 10.4 mph - N/A   Clear
1:35 AM 26.6 °F 16.2 °F 23.0 °F 86% 29.99 in 10.0 mi NW 11.5 mph - N/A   Clear
1:55 AM 26.6 °F 16.2 °F 23.0 °F 86% 29.99 in 10.0 mi NW 11.5 mph - N/A   Clear
2:15 AM 24.8 °F 14.0 °F 23.0 °F 93% 29.99 in 10.0 mi NW 11.5 mph - N/A   Clear
2:35 AM 24.8 °F 15.3 °F 21.2 °F 86% 29.99 in 10.0 mi NNW 9.2 mph - N/A   Clear
2:55 AM 23.0 °F 11.7 °F 19.4 °F 86% 30.00 in 10.0 mi NNW 11.5 mph - N/A   Clear
3:15 AM 23.0 °F 11.7 °F 19.4 °F 86% 30.00 in 10.0 mi NNW 11.5 mph - N/A   Clear
3:35 AM 24.8 °F 12.9 °F 19.4 °F 80% 30.00 in 10.0 mi NNW 13.8 mph - N/A   Clear
3:55 AM 24.8 °F 14.0 °F 23.0 °F 93% 30.00 in 10.0 mi NNW 11.5 mph - N/A   Clear
4:15 AM 24.8 °F 14.6 °F 21.2 °F 86% 30.00 in 10.0 mi NNW 10.4 mph - N/A   Clear
4:35 AM 21.2 °F 10.9 °F 17.6 °F 86% 30.00 in 10.0 mi NNW 9.2 mph - N/A   Clear
4:55 AM 17.6 °F 7.3 °F 15.8 °F 93% 30.00 in 10.0 mi North 8.1 mph - N/A   Clear
5:15 AM 17.6 °F 7.3 °F 14.0 °F 86% 30.01 in 10.0 mi North 8.1 mph - N/A   Clear
5:35 AM 17.6 °F 9.3 °F 14.0 °F 86% 30.02 in 10.0 mi North 5.8 mph - N/A   Clear
5:55 AM 17.6 °F 10.7 °F 14.0 °F 86% 30.02 in 10.0 mi WNW 4.6 mph - N/A   Partly Cloudy
6:15 AM 17.6 °F 12.3 °F 14.0 °F 86% 30.03 in 10.0 mi NW 3.5 mph - N/A   Clear
6:35 AM 17.6 °F 12.3 °F 14.0 °F 86% 30.04 in 10.0 mi WNW 3.5 mph - N/A   Clear
7:15 AM 15.8 °F 6.1 °F 10.4 °F 79% 30.05 in 10.0 mi NW 6.9 mph - N/A   Clear
7:35 AM 17.6 °F 9.3 °F 14.0 °F 86% 30.06 in 10.0 mi NW 5.8 mph - N/A   Clear
7:55 AM 23.0 °F 14.7 °F 19.4 °F 86% 30.07 in 10.0 mi WNW 6.9 mph - N/A   Clear
8:15 AM 24.8 °F 16.9 °F 21.2 °F 86% 30.07 in 10.0 mi West 6.9 mph - N/A   Clear
8:55 AM 28.4 °F 21.2 °F 23.0 °F 80% 30.09 in 10.0 mi WNW 6.9 mph - N/A   Clear
9:15 AM 32.0 °F 24.2 °F 23.0 °F 69% 30.10 in 10.0 mi WNW 9.2 mph - N/A   Clear
9:35 AM 32.0 °F 24.2 °F 23.0 °F 69% 30.10 in 10.0 mi NW 9.2 mph - N/A   Clear
9:55 AM 33.8 °F 25.3 °F 23.0 °F 65% 30.11 in 10.0 mi WNW 11.5 mph - N/A   Partly Cloudy
10:15 AM 35.6 °F 27.1 °F 21.2 °F 56% 30.12 in 10.0 mi NW 12.7 mph - N/A   Mostly Cloudy
10:35 AM 35.6 °F 28.0 °F 21.2 °F 56% 30.12 in 10.0 mi NW 10.4 mph - N/A   Scattered Clouds
10:55 AM 35.6 °F 28.0 °F 19.4 °F 52% 30.11 in 10.0 mi NW 10.4 mph 16.1 mph N/A   Partly Cloudy
11:15 AM 37.4 °F 31.4 °F 17.6 °F 45% 30.11 in 10.0 mi NNW 8.1 mph 16.1 mph N/A   Partly Cloudy
11:35 AM 37.4 °F 29.8 °F 19.4 °F 48% 30.09 in 10.0 mi WNW 11.5 mph 17.3 mph N/A   Partly Cloudy
11:55 AM 37.4 °F 30.8 °F 15.8 °F 41% 30.09 in 10.0 mi NW 9.2 mph - N/A   Partly Cloudy
12:15 PM 37.4 °F 30.3 °F 17.6 °F 45% 30.08 in 10.0 mi WNW 10.4 mph - N/A   Clear
12:35 PM 39.2 °F 31.6 °F 17.6 °F 42% 30.06 in 10.0 mi West 12.7 mph 20.7 mph N/A   Clear
12:55 PM 39.2 °F 32.0 °F 15.8 °F 39% 30.06 in 10.0 mi WNW 11.5 mph - N/A   Clear
1:15 PM 39.2 °F 32.5 °F 15.8 °F 39% 30.05 in 10.0 mi WNW 10.4 mph 21.9 mph N/A   Clear
1:35 PM 39.2 °F 32.5 °F 15.8 °F 39% 30.05 in 10.0 mi West 10.4 mph 16.1 mph N/A   Clear
1:55 PM 39.2 °F 33.0 °F 15.8 °F 39% 30.04 in 10.0 mi NW 9.2 mph - N/A   Clear
2:15 PM 41.0 °F 35.2 °F 15.8 °F 36% 30.04 in 10.0 mi WNW 9.2 mph 18.4 mph N/A   Clear
2:35 PM 41.0 °F 35.8 °F 15.8 °F 36% 30.04 in 10.0 mi West 8.1 mph 17.3 mph N/A   Clear
2:55 PM 41.0 °F 34.7 °F 15.8 °F 36% 30.05 in 10.0 mi WNW 10.4 mph - N/A   Clear
3:15 PM 41.0 °F 35.2 °F 15.8 °F 36% 30.05 in 10.0 mi West 9.2 mph 17.3 mph N/A   Clear
3:35 PM 41.0 °F 34.7 °F 14.0 °F 33% 30.05 in 10.0 mi WNW 10.4 mph - N/A   Clear
3:55 PM 41.0 °F 34.7 °F 15.8 °F 36% 30.05 in 10.0 mi WNW 10.4 mph - N/A   Clear
4:15 PM 41.0 °F 34.7 °F 14.0 °F 33% 30.06 in 10.0 mi WNW 10.4 mph 16.1 mph N/A   Clear
4:35 PM 41.0 °F 33.5 °F 15.8 °F 36% 30.07 in 10.0 mi WNW 13.8 mph - N/A   Clear
4:55 PM 39.2 °F 31.6 °F 15.8 °F 39% 30.08 in 10.0 mi WNW 12.7 mph - N/A   Clear
5:15 PM 37.4 °F 30.8 °F 15.8 °F 41% 30.09 in 10.0 mi WNW 9.2 mph - N/A   Clear
5:35 PM 35.6 °F 28.0 °F 15.8 °F 44% 30.09 in 10.0 mi NW 10.4 mph - N/A   Clear
5:55 PM 32.0 °F 23.0 °F 15.8 °F 51% 30.10 in 10.0 mi NW 11.5 mph - N/A   Clear
6:15 PM 32.0 °F 23.0 °F 15.8 °F 51% 30.10 in 10.0 mi NW 11.5 mph - N/A   Clear
6:35 PM 32.0 °F 23.6 °F 15.8 °F 51% 30.11 in 10.0 mi NW 10.4 mph - N/A   Clear
7:15 PM 30.2 °F 19.8 °F 17.6 °F 60% 30.12 in 10.0 mi NW 13.8 mph - N/A   Clear
7:35 PM 30.2 °F 20.2 °F 17.6 °F 60% 30.13 in 10.0 mi NNW 12.7 mph - N/A   Clear
7:55 PM 28.4 °F 20.4 °F 17.6 °F 64% 30.14 in 10.0 mi North 8.1 mph - N/A   Clear
8:15 PM 28.4 °F 19.1 °F 17.6 °F 64% 30.15 in 10.0 mi North 10.4 mph - N/A   Clear
8:35 PM 28.4 °F 18.5 °F 17.6 °F 64% 30.15 in 10.0 mi NNW 11.5 mph - N/A   Clear
8:55 PM 26.6 °F 19.1 °F 15.8 °F 64% 30.15 in 10.0 mi North 6.9 mph - N/A   Clear
9:15 PM 26.6 °F 18.2 °F 15.8 °F 64% 30.15 in 10.0 mi NNW 8.1 mph - N/A   Clear
9:35 PM 24.8 °F 17.9 °F 15.8 °F 69% 30.16 in 10.0 mi NNE 5.8 mph - N/A   Clear
9:55 PM 21.2 °F 11.7 °F 14.0 °F 74% 30.17 in 10.0 mi North 8.1 mph - N/A   Clear
10:15 PM 19.4 °F 8.6 °F 14.0 °F 80% 30.18 in 10.0 mi NNW 9.2 mph - N/A   Clear
10:35 PM 21.2 °F 10.1 °F 14.0 °F 74% 30.18 in 10.0 mi North 10.4 mph - N/A   Clear
10:55 PM 23.0 °F 11.7 °F 14.0 °F 68% 30.18 in 10.0 mi North 11.5 mph - N/A   Clear
11:15 PM 23.0 °F 13.1 °F 14.0 °F 68% 30.19 in 10.0 mi North 9.2 mph - N/A   Clear
11:35 PM 23.0 °F 14.7 °F 14.0 °F 68% 30.19 in 10.0 mi North 6.9 mph - N/A   Clear
11:55 PM 21.2 °F 10.9 °F 14.0 °F 74% 30.20 in 10.0 mi North 9.2 mph - N/A   Clear